Location: Gro� Glienicke
(52.4675°N, 13.1079°E)
Time: 07:48:11
(UTC+00:00)

Cosmos 1408 - Pass Details

Date: 06 July 2020
Orbit: 470 x 494 km, 82.6° (Epoch: 04 August)

Event Time Altitude Azimuth Distance (km) Brightness Sun altitude
Exits shadow 22:37:44 13° 227° (SW) 1,453 4.6 -14.6°
Maximum altitude 22:40:29 32° 288° (WNW) 832 4.0 -14.6°
Drops below altitude 10° 22:43:45 10° 354° (N) 1,647 6.7 -14.7°
Sets 22:46:00 0° 4° (N) 2,530 8.0 -14.7°
